FW8535 Weather Reports


Display with metric or nautical units.
time (UTC)temp
F
wind
direction
speed
MPH
gust
MPH
rain 1hr
in
rain 24hr
in
rain mn
in
humidity
%
barometer
mb
20260901193029 80 115 6.0 14.0 0.00 0.00 0.00 33 1011.7
20260901192529 81 134 9.0 14.0 0.00 0.00 0.00 33 1011.8
20260901192028 80 111 4.0 10.0 0.00 0.00 0.00 34 1011.8
20260901191531 80 95 3.0 12.0 0.00 0.00 0.00 34 1011.9
20260901191027 80 133 8.0 12.0 0.00 0.00 0.00 33 1012.0
20260901190526 80 96 7.0 12.0 0.00 0.00 0.00 34 1012.0
20260901190030 80 99 6.0 11.0 0.00 0.00 0.00 35 1012.2
20260901185525 80 126 6.0 12.0 0.00 0.00 0.00 35 1012.3
20260901184522 80 104 4.0 10.0 0.00 0.00 0.00 35 1012.4
20260901184019 80 142 5.0 12.0 0.00 0.00 0.00 35 1012.2
20260901183518 80 119 6.0 13.0 0.00 0.00 0.00 35 1012.4
20260901183034 80 101 7.0 13.0 0.00 0.00 0.00 35 1012.5
20260901182515 79 90 3.0 10.0 0.00 0.00 0.00 36 1012.5
20260901182015 79 123 6.0 11.0 0.00 0.00 0.00 35 1012.5
20260901181514 79 99 6.0 11.0 0.00 0.00 0.00 36 1012.8
20260901181013 79 101 6.0 11.0 0.00 0.00 0.00 37 1012.8
20260901180512 78 113 5.0 11.0 0.00 0.00 0.00 38 1012.8
20260901180010 78 106 6.0 9.0 0.00 0.00 0.00 37 1012.8
20260901175512 77 123 6.0 12.0 0.00 0.00 0.00 38 1013.0
20260901174511 77 140 5.0 11.0 0.00 0.00 0.00 39 1013.1
20260901174016 76 112 5.0 11.0 0.00 0.00 0.00 39 1013.0
20260901173510 76 132 6.0 12.0 0.00 0.00 0.00 39 1013.1
20260901173009 76 128 7.0 12.0 0.00 0.00 0.00 40 1013.1
20260901172513 75 142 5.0 11.0 0.00 0.00 0.00 41 1013.2
20260901172008 76 142 9.0 12.0 0.00 0.00 0.00 41 1013.1
20260901171507 75 201 8.0 12.0 0.00 0.00 0.00 42 1013.3
20260901171007 75 144 6.0 10.0 0.00 0.00 0.00 43 1013.3
20260901170506 75 129 6.0 10.0 0.00 0.00 0.00 43 1013.3
20260901170006 75 136 6.0 10.0 0.00 0.00 0.00 43 1013.3
20260901165508 75 132 6.0 10.0 0.00 0.00 0.00 44 1013.2
20260901164509 74 128 5.0 9.0 0.00 0.00 0.00 45 1013.3
20260901164008 74 111 4.0 8.0 0.00 0.00 0.00 44 1013.3
20260901163506 73 113 4.0 7.0 0.00 0.00 0.00 45 1013.4
20260901163005 72 120 4.0 7.0 0.00 0.00 0.00 46 1013.3
20260901162504 72 91 3.0 6.0 0.00 0.00 0.00 47 1013.2
20260901162001 71 39 1.0 6.0 0.00 0.00 0.00 49 1013.2
20260901161607 70 36 1.0 6.0 0.00 0.00 0.00 49 1013.1
20260901161100 70 32 2.0 5.0 0.00 0.00 0.00 50 1013.1
20260901160558 69 36 1.0 6.0 0.00 0.00 0.00 49 1013.1
20260901160100 69 35 3.0 6.0 0.00 0.00 0.00 51 1013.1
20260901155556 68 26 0.0 4.0 0.00 0.00 0.00 52 1013.3
20260901155156 67 26 2.0 4.0 0.00 0.00 0.00 52 1013.2
20260901154555 67 26 1.0 4.0 0.00 0.00 0.00 53 1013.2
20260901154054 67 25 1.0 3.0 0.00 0.00 0.00 53 1013.4
20260901153553 66 25 0.0 4.0 0.00 0.00 0.00 54 1013.4
20260901153053 66 24 2.0 5.0 0.00 0.00 0.00 54 1013.3
20260901152552 66 21 1.0 3.0 0.00 0.00 0.00 54 1013.4
20260901152051 66 20 1.0 4.0 0.00 0.00 0.00 55 1013.3
20260901151553 65 20 0.0 4.0 0.00 0.00 0.00 55 1013.3
20260901151050 65 19 0.0 3.0 0.00 0.00 0.00 55 1013.4
20260901150548 64 18 1.0 3.0 0.00 0.00 0.00 55 1013.4
20260901150048 64 16 1.0 4.0 0.00 0.00 0.00 57 1013.5
20260901145548 63 16 2.0 4.0 0.00 0.00 0.00 56 1013.5
20260901144541 62 333 2.0 4.0 0.00 0.00 0.00 58 1013.4
20260901144040 62 325 3.0 4.0 0.00 0.00 0.00 58 1013.5
20260901143539 62 233 1.0 3.0 0.00 0.00 0.00 58 1013.7
20260901143043 61 233 0.0 3.0 0.00 0.00 0.00 59 1013.7
20260901142537 61 233 1.0 4.0 0.00 0.00 0.00 60 1013.9
20260901142034 60 233 1.0 4.0 0.00 0.00 0.00 61 1013.9
20260901141540 59 235 2.0 4.0 0.00 0.00 0.00 62 1013.9
20260901141034 58 238 1.0 3.0 0.00 0.00 0.00 64 1013.7
20260901140533 57 238 0.0 3.0 0.00 0.00 0.00 67 1013.7
20260901140034 55 238 0.0 2.0 0.00 0.00 0.00 70 1013.6
20260901135529 54 238 0.0 2.0 0.00 0.00 0.00 73 1013.8
20260901134528 51 238 1.0 3.0 0.00 0.00 0.00 75 1013.7
20260901134026 51 238 1.0 3.0 0.00 0.00 0.00 76 1013.8
20260901133526 50 238 0.0 0.0 0.00 0.00 0.00 77 1013.8
20260901133037 50 238 0.0 0.0 0.00 0.00 0.00 78 1013.9
20260901132532 49 238 0.0 0.0 0.00 0.00 0.00 78 1013.9
20260901132026 49 238 0.0 0.0 0.00 0.00 0.00 79 1013.9
20260901131529 48 238 0.0 0.0 0.00 0.00 0.00 80 1013.9
20260901131029 47 238 0.0 0.0 0.00 0.00 0.00 79 1013.9
20260901130524 47 238 0.0 0.0 0.00 0.00 0.00 80 1013.9
20260901130024 47 238 0.0 0.0 0.00 0.00 0.00 80 1013.9
20260901125524 47 238 0.0 0.0 0.00 0.00 0.00 80 1014.0
20260901124525 46 238 0.0 0.0 0.00 0.00 0.00 78 1013.8
20260901124023 46 238 0.0 0.0 0.00 0.00 0.00 77 1013.8
20260901123522 47 238 0.0 0.0 0.00 0.00 0.00 75 1013.8
20260901123022 47 238 0.0 0.0 0.00 0.00 0.00 77 1013.6
20260901122522 47 238 0.0 0.0 0.00 0.00 0.00 77 1013.6
20260901122021 47 238 0.0 0.0 0.00 0.00 0.00 78 1013.4
20260901121521 47 238 0.0 0.0 0.00 0.00 0.00 78 1013.4
20260901121021 47 238 0.0 0.0 0.00 0.00 0.00 77 1013.5
20260901120524 47 238 0.0 0.0 0.00 0.00 0.00 76 1013.5
20260901120019 47 238 0.0 0.0 0.00 0.00 0.00 76 1013.5
20260901115523 48 238 0.0 0.0 0.00 0.00 0.00 76 1013.5
20260901114519 49 238 0.0 2.0 0.00 0.00 0.00 76 1013.6
20260901114021 48 238 0.0 2.0 0.00 0.00 0.00 77 1013.6
20260901113519 48 238 0.0 2.0 0.00 0.00 0.00 77 1013.5
20260901113020 48 238 0.0 2.0 0.00 0.00 0.00 77 1013.5
20260901112518 48 238 0.0 2.0 0.00 0.00 0.00 76 1013.4
20260901112018 48 238 1.0 2.0 0.00 0.00 0.00 76 1013.4
20260901111518 48 238 0.0 2.0 0.00 0.00 0.00 76 1013.4
20260901111018 48 238 1.0 2.0 0.00 0.00 0.00 78 1013.4
20260901110517 47 238 0.0 1.0 0.00 0.00 0.00 78 1013.2
20260901110033 47 238 0.0 1.0 0.00 0.00 0.00 77 1013.3
20260901105516 47 238 0.0 3.0 0.00 0.00 0.00 77 1013.4
20260901104517 48 238 1.0 2.0 0.00 0.00 0.00 75 1013.2
20260901104018 48 238 0.0 2.0 0.00 0.00 0.00 75 1013.2
20260901103516 48 238 0.0 1.0 0.00 0.00 0.00 75 1013.3
20260901103015 48 238 0.0 1.0 0.00 0.00 0.00 75 1013.3
20260901102515 48 238 0.0 1.0 0.00 0.00 0.00 75 1013.2
20260901102015 49 238 0.0 1.0 0.00 0.00 0.00 74 1013.2
20260901101514 49 238 0.0 2.0 0.00 0.00 0.00 74 1013.4
20260901101013 49 238 1.0 3.0 0.00 0.00 0.00 74 1013.3
20260901100513 49 238 1.0 4.0 0.00 0.00 0.00 73 1013.4
20260901100012 49 242 1.0 2.0 0.00 0.00 0.00 74 1013.3
20260901095512 49 242 0.0 1.0 0.00 0.00 0.00 74 1013.3
20260901094515 49 242 0.0 2.0 0.00 0.00 0.00 73 1013.3
20260901094008 49 242 0.0 2.0 0.00 0.00 0.00 72 1013.2
20260901093507 50 242 0.0 2.0 0.00 0.00 0.00 72 1013.2
20260901093007 50 242 0.0 2.0 0.00 0.00 0.00 71 1013.2
20260901092505 50 242 1.0 2.0 0.00 0.00 0.00 71 1013.3
20260901092004 51 242 0.0 0.0 0.00 0.00 0.00 70 1013.3
20260901091503 51 242 0.0 0.0 0.00 0.00 0.00 70 1013.3
20260901091002 51 242 0.0 0.0 0.00 0.00 0.00 70 1013.4
20260901090501 51 242 0.0 0.0 0.00 0.00 0.00 68 1013.3
20260901090101 52 242 0.0 0.0 0.00 0.00 0.00 68 1013.4
20260901085602 52 242 0.0 0.0 0.00 0.00 0.00 68 1013.5
20260901085200 53 242 0.0 0.0 0.00 0.00 0.00 68 1013.5
20260901084556 53 242 0.0 0.0 0.00 0.00 0.00 68 1013.5
20260901084057 53 242 0.0 2.0 0.00 0.00 0.00 68 1013.5
20260901083556 53 242 0.0 2.0 0.00 0.00 0.00 67 1013.5
20260901083058 53 242 1.0 2.0 0.00 0.00 0.00 66 1013.6
20260901082558 54 242 0.0 4.0 0.00 0.00 0.00 65 1013.5
20260901082054 54 242 0.0 4.0 0.00 0.00 0.00 66 1013.5
20260901081603 54 201 1.0 3.0 0.00 0.00 0.00 67 1013.5
20260901081058 53 200 1.0 3.0 0.00 0.00 0.00 68 1013.6
20260901080555 53 200 1.0 3.0 0.00 0.00 0.00 67 1013.6
20260901080054 55 200 2.0 3.0 0.00 0.00 0.00 64 1013.7
20260901075556 56 201 0.0 2.0 0.00 0.00 0.00 64 1013.6
20260901075054 56 201 1.0 5.0 0.00 0.00 0.00 63 1013.4
20260901074559 56 201 1.0 5.0 0.00 0.00 0.00 63 1013.5
20260901074057 56 272 1.0 3.0 0.00 0.00 0.00 65 1013.4
20260901073556 55 271 0.0 4.0 0.00 0.00 0.00 65 1013.3
20260901073056 55 271 0.0 4.0 0.00 0.00 0.00 65 1013.4
20260901072558 55 284 0.0 6.0 0.00 0.00 0.00 66 1013.4
20260901072055 53 229 2.0 4.0 0.00 0.00 0.00 68 1013.4
20260901071601 53 175 0.0 5.0 0.00 0.00 0.00 65 1013.4
20260901071052 54 176 0.0 5.0 0.00 0.00 0.00 65 1013.5
20260901070552 54 221 0.0 3.0 0.00 0.00 0.00 65 1013.6
20260901070059 54 221 2.0 3.0 0.00 0.00 0.00 66 1013.6
20260901065551 54 208 0.0 3.0 0.00 0.00 0.00 64 1013.6
20260901065150 55 208 1.0 3.0 0.00 0.00 0.00 64 1013.4
20260901064548 55 208 1.0 3.0 0.00 0.00 0.00 64 1013.5
20260901064047 55 207 0.0 3.0 0.00 0.00 0.00 65 1013.3
20260901063546 55 207 0.0 3.0 0.00 0.00 0.00 63 1013.2
20260901063046 56 207 0.0 2.0 0.00 0.00 0.00 62 1013.3
20260901062545 56 207 0.0 0.0 0.00 0.00 0.00 62 1013.2
20260901062046 57 207 0.0 0.0 0.00 0.00 0.00 62 1013.2
20260901061545 57 207 0.0 0.0 0.00 0.00 0.00 62 1013.0
20260901061045 57 207 0.0 1.0 0.00 0.00 0.00 61 1013.0
20260901060544 57 207 0.0 2.0 0.00 0.00 0.00 61 1013.2
20260901060045 58 207 0.0 3.0 0.00 0.00 0.00 60 1013.2
20260901055544 58 207 1.0 4.0 0.00 0.00 0.00 59 1013.2
20260901055144 59 275 0.0 0.0 0.00 0.00 0.00 59 1013.1
20260901054546 59 275 0.0 0.0 0.00 0.00 0.00 59 1013.1
20260901054046 59 275 0.0 0.0 0.00 0.00 0.00 59 1013.0
20260901053547 59 275 0.0 0.0 0.00 0.00 0.00 59 1012.8
20260901053100 59 275 0.0 0.0 0.00 0.00 0.00 59 1012.8
20260901052545 59 275 0.0 0.0 0.00 0.00 0.00 59 1012.8
20260901052045 59 275 0.0 0.0 0.00 0.00 0.00 59 1012.9
20260901051545 59 275 0.0 0.0 0.00 0.00 0.00 58 1012.9
20260901051045 59 275 0.0 0.0 0.00 0.00 0.00 58 1012.9
20260901050547 59 275 0.0 0.0 0.00 0.00 0.00 58 1012.6
20260901050044 59 275 0.0 2.0 0.00 0.00 0.00 58 1012.7
20260901045547 59 275 0.0 2.0 0.00 0.00 0.00 58 1012.7
20260901045143 59 275 1.0 2.0 0.00 0.00 0.00 58 1012.5
20260901044549 59 275 1.0 2.0 0.00 0.00 0.00 58 1012.5
20260901044041 59 275 0.0 2.0 0.00 0.00 0.00 58 1012.4
20260901043541 59 275 1.0 2.0 0.00 0.00 0.00 58 1012.5
20260901043100 59 275 1.0 3.0 0.00 0.00 0.00 57 1012.5
20260901042539 59 275 1.0 3.0 0.00 0.00 0.00 57 1012.5
20260901042039 60 275 0.0 2.0 0.00 0.00 0.00 56 1012.6
20260901041539 60 275 0.0 0.0 0.00 0.00 0.00 56 1012.5
20260901041038 60 275 0.0 0.0 0.00 0.00 0.00 54 1012.6
20260901040539 61 275 0.0 2.0 0.00 0.00 0.00 53 1012.4
20260901040052 62 275 0.0 3.0 0.00 0.00 0.00 52 1012.4
20260901035537 63 275 1.0 3.0 0.00 0.00 0.00 52 1012.4
20260901035138 64 275 0.0 2.0 0.00 0.00 0.00 50 1012.6
20260901034552 64 275 0.0 2.0 0.00 0.00 0.00 50 1012.6
20260901034037 64 275 0.0 2.0 0.00 0.00 0.00 50 1012.7
20260901033538 64 275 0.0 2.0 0.00 0.00 0.00 50 1012.7
20260901033052 64 276 0.0 2.0 0.00 0.00 0.00 49 1012.6
20260901032538 65 276 0.0 3.0 0.00 0.00 0.00 49 1012.6
20260901032036 65 276 0.0 4.0 0.00 0.00 0.00 48 1012.7
20260901031536 65 275 3.0 4.0 0.00 0.00 0.00 48 1012.7
20260901031037 66 279 2.0 4.0 0.00 0.00 0.00 47 1012.5
20260901030539 66 284 1.0 4.0 0.00 0.00 0.00 47 1012.6
20260901030035 66 279 1.0 4.0 0.00 0.00 0.00 48 1012.6
20260901025535 66 266 2.0 4.0 0.00 0.00 0.00 48 1012.6
20260901025035 66 270 2.0 3.0 0.00 0.00 0.00 48 1012.3
20260901024545 66 270 2.0 3.0 0.00 0.00 0.00 48 1012.4
20260901024035 66 270 2.0 4.0 0.00 0.00 0.00 47 1012.6
20260901023534 66 270 2.0 4.0 0.00 0.00 0.00 46 1012.3
20260901023036 67 270 2.0 3.0 0.00 0.00 0.00 46 1012.4
20260901022534 67 270 1.0 3.0 0.00 0.00 0.00 46 1012.4
20260901022034 67 270 2.0 3.0 0.00 0.00 0.00 45 1012.5
20260901021533 68 270 2.0 3.0 0.00 0.00 0.00 45 1012.4
20260901021033 68 270 2.0 3.0 0.00 0.00 0.00 44 1012.2
20260901020535 69 270 2.0 3.0 0.00 0.00 0.00 43 1012.1
20260901020034 70 270 1.0 3.0 0.00 0.00 0.00 42 1011.9
20260901015531 71 270 2.0 4.0 0.00 0.00 0.00 40 1011.9
20260901015131 73 273 2.0 7.0 0.00 0.00 0.00 39 1011.7
20260901014531 73 274 2.0 7.0 0.00 0.00 0.00 39 1011.6
20260901014030 73 290 2.0 9.0 0.00 0.00 0.00 39 1011.5
20260901013532 73 290 4.0 10.0 0.00 0.00 0.00 38 1011.5
20260901013030 74 277 5.0 14.0 0.00 0.00 0.00 38 1011.5
20260901012529 74 273 5.0 14.0 0.00 0.00 0.00 38 1011.4
20260901012032 74 252 3.0 10.0 0.00 0.00 0.00 38 1011.4
20260901011529 75 282 4.0 10.0 0.00 0.00 0.00 37 1011.4
20260901011029 75 278 4.0 11.0 0.00 0.00 0.00 37 1011.4
20260901010528 76 317 5.0 15.0 0.00 0.00 0.00 36 1011.4
20260901010034 76 267 5.0 13.0 0.00 0.00 0.00 36 1011.3
20260901005531 77 305 5.0 13.0 0.00 0.00 0.00 36 1011.2
20260901005127 77 275 5.0 12.0 0.00 0.00 0.00 35 1011.2
20260901004526 77 273 5.0 12.0 0.00 0.00 0.00 35 1011.1
20260901004025 77 248 4.0 12.0 0.00 0.00 0.00 35 1011.2
20260901003528 78 304 4.0 16.0 0.00 0.00 0.00 35 1011.1
20260901003025 78 272 9.0 20.0 0.00 0.00 0.00 34 1011.1
20260901002527 78 285 8.0 20.0 0.00 0.00 0.00 34 1011.0
20260901002025 78 252 5.0 17.0 0.00 0.00 0.00 34 1011.0
20260901001528 78 322 8.0 17.0 0.00 0.00 0.00 33 1011.1
20260901001025 78 304 6.0 16.0 0.00 0.00 0.00 34 1011.1
20260901000524 79 265 8.0 16.0 0.00 0.00 0.00 33 1011.1
20260901000024 79 290 8.0 19.0 0.00 0.00 0.00 32 1011.1
20260831235525 79 262 9.0 19.0 0.00 0.00 0.00 33 1011.0
20260831235026 79 268 7.0 16.0 0.00 0.00 0.00 32 1010.8
20260831234535 79 273 8.0 18.0 0.00 0.00 0.00 32 1010.9
20260831234025 80 265 6.0 18.0 0.00 0.00 0.00 33 1010.9
20260831233525 80 254 9.0 19.0 0.00 0.00 0.00 32 1010.8
20260831233025 79 303 7.0 19.0 0.00 0.00 0.00 33 1010.8
20260831232525 80 292 8.0 17.0 0.00 0.00 0.00 33 1011.0
20260831232025 80 264 8.0 18.0 0.00 0.00 0.00 33 1010.9
20260831231524 81 244 9.0 18.0 0.00 0.00 0.00 32 1010.9
20260831231024 81 248 7.0 16.0 0.00 0.00 0.00 32 1010.9
20260831230524 81 289 9.0 16.0 0.00 0.00 0.00 32 1010.9
20260831230025 81 271 9.0 16.0 0.00 0.00 0.00 33 1011.1
20260831225526 80 263 7.0 19.0 0.00 0.00 0.00 33 1011.1
20260831225124 80 321 8.0 20.0 0.00 0.00 0.00 32 1011.0
20260831224527 81 355 6.0 20.0 0.00 0.00 0.00 32 1011.0
20260831224026 81 271 10.0 20.0 0.00 0.00 0.00 32 1011.1
20260831223527 81 252 6.0 19.0 0.00 0.00 0.00 32 1011.0
20260831223026 81 242 10.0 19.0 0.00 0.00 0.00 32 1010.7
20260831222526 81 308 9.0 23.0 0.00 0.00 0.00 31 1010.9
20260831222029 82 282 8.0 17.0 0.00 0.00 0.00 32 1010.8
20260831221527 81 264 10.0 18.0 0.00 0.00 0.00 32 1010.8
20260831221025 81 278 9.0 18.0 0.00 0.00 0.00 32 1010.7
20260831220525 81 269 9.0 19.0 0.00 0.00 0.00 32 1010.8
20260831220029 81 289 9.0 22.0 0.00 0.00 0.00 32 1010.8
20260831215525 81 290 12.0 22.0 0.00 0.00 0.00 31 1010.9
20260831214523 81 267 9.0 18.0 0.00 0.00 0.00 32 1010.8
20260831214022 81 257 9.0 18.0 0.00 0.00 0.00 32 1010.8
20260831213522 81 237 9.0 18.0 0.00 0.00 0.00 32 1010.8
20260831213035 81 275 8.0 19.0 0.00 0.00 0.00 32 1010.8
20260831212522 81 247 9.0 19.0 0.00 0.00 0.00 33 1010.8
20260831212022 81 272 7.0 23.0 0.00 0.00 0.00 32 1010.8
20260831211522 81 261 11.0 23.0 0.00 0.00 0.00 32 1010.9
20260831211021 81 248 10.0 19.0 0.00 0.00 0.00 32 1011.0
20260831210521 81 315 12.0 27.0 0.00 0.00 0.00 32 1011.3
20260831210021 81 248 12.0 27.0 0.00 0.00 0.00 31 1010.9
20260831205520 81 261 9.0 19.0 0.00 0.00 0.00 32 1011.0
20260831205024 81 272 9.0 18.0 0.00 0.00 0.00 32 1011.2
20260831204522 81 272 11.0 18.0 0.00 0.00 0.00 32 1011.2
20260831204022 81 268 9.0 18.0 0.00 0.00 0.00 33 1011.1
20260831203522 81 253 7.0 23.0 0.00 0.00 0.00 33 1011.0
20260831203036 81 260 10.0 23.0 0.00 0.00 0.00 31 1011.0
20260831202519 80 286 10.0 21.0 0.00 0.00 0.00 32 1011.0
20260831202019 80 238 9.0 21.0 0.00 0.00 0.00 33 1010.8
20260831201519 80 250 9.0 23.0 0.00 0.00 0.00 34 1011.0
20260831201018 79 261 13.0 23.0 0.00 0.00 0.00 34 1011.1
20260831200518 79 223 10.0 29.0 0.00 0.00 0.00 34 1011.0
20260831200017 80 229 10.0 24.0 0.00 0.00 0.00 34 1011.0
20260831195516 80 246 10.0 26.0 0.00 0.00 0.00 34 1010.9
20260831195115 80 263 10.0 20.0 0.00 0.00 0.00 35 1011.0
20260831194523 80 295 9.0 20.0 0.00 0.00 0.00 35 1011.0
20260831194019 79 259 9.0 29.0 0.00 0.00 0.00 36 1011.0
20260831193519 79 247 11.0 29.0 0.00 0.00 0.00 36 1011.1